sat.trackr.live / text

‹ back to catalog

STARLINK-33897

NORAD 63865 · 2025-094B

PAYLOAD ACTIVE UNKNOWN

§ Identity

Operator
Country
US
Launch date
2025-05-10
Launch site
AFWTR
Launch vehicle
Mass (kg)
RCS (m²)

Purposes: comms

External: N2YO · Heavens-Above · Gunter

§ Orbital elements

Epoch: 2026-05-25T03:16:54.429312Z

Period
96.11 min
Inclination
70.0023°
Eccentricity
0.0002849
Mean motion
14.98338529 rev/d
Perigee alt
570.0 km
Apogee alt
574.0 km
Semi-major
6,950.2 km
B*
3.0348e-4
RAAN
41.7334°
Arg perigee
268.9456°
Mean anomaly
91.1376°
Rev number
5,887

§ Raw data

STARLINK-338971 63865U 25094B   26145.13674108  .00003531  00000+0  30348-3 0  99982 63865  70.0023  41.7334 0002849 268.9456  91.1376 14.98338529 58874

JSON: /api/v1/satellites/63865 · /tle

For live sub-satellite position, see the globe view (requires WebGL).

§ Visibility from observer

Set your observer location to see the next 7 days of passes ≥ 10°. The values pass through the URL so the page stays shareable.

No JS? Fill the form by hand. The geolocation button needs JavaScript.